Wind_Speed
1 4 6 6 7 6 6 6 5 5 9 13 15 17 19 20 19 21 22 23 23 21 20 22 22 22 23 24 26 27 29 31 32 32 34 36 37 37 37 37 37 37 37 36
2 4 5 7 6 5 5 5 4 6 10 13 16 19 21 22 22 23 22 20 18 17 19 20 19 21 23 25 27 29 30 32 34 34 36 37 38 38 38 38 39 39 39 39
1 2 5 6 6 6 5 7 6 7 11 14 17 20 21 23 24 24 22 16 14 13 15 16 17 20 22 24 27 28 30 32 34 35 36 37 37 38 40 40 40 40 40 41
6 3 4 5 6 5 6 7 8 9 13 16 19 22 23 24 24 24 17 10 10 9 12 14 17 20 22 25 27 29 31 33 34 36 37 38 38 39 40 41 40 41 41 41
6 4 3 4 5 6 5 6 7 10 12 14 17 20 20 21 20 15 9 9 9 9 13 15 18 20 23 25 27 29 31 32 34 36 37 38 38 39 39 40 40 40 40 41
7 4 4 3 4 2 3 4 6 9 10 13 14 16 15 15 12 7 6 7 10 12 15 17 20 22 24 25 27 28 30 31 32 34 35 36 37 37 37 38 39 39 39 40
6 4 3 3 4 3 4 5 7 7 8 10 12 13 11 11 9 8 9 11 14 16 19 22 24 25 26 28 29 30 30 31 32 33 33 33 33 34 35 36 37 37 38 39
6 4 3 3 2 2 4 6 7 8 9 10 10 11 12 12 11 11 13 15 18 21 24 25 27 28 29 31 31 32 31 31 31 31 32 33 33 34 35 36 36 37 38 39
6 6 4 5 4 4 4 6 7 8 9 10 10 11 13 14 15 17 18 20 23 25 27 29 30 31 32 32 33 32 32 32 32 32 32 33 34 35 36 36 37 38 39 40
7 6 5 5 7 5 6 7 8 8 9 10 11 13 15 16 18 20 22 24 27 29 30 32 33 33 33 34 34 34 34 34 34 34 35 36 36 37 38 39 39 40 41 41
7 6 5 6 6 5 5 7 8 8 9 11 14 16 17 18 21 23 25 28 29 30 32 34 34 35 35 36 36 35 36 36 37 38 38 39 39 39 40 40 41 41 42 43
6 6 6 4 4 3 4 6 8 10 11 13 16 17 19 20 22 24 27 29 30 32 34 35 36 37 37 36 36 36 37 38 39 39 40 40 40 40 40 41 42 43 43 44
7 6 6 4 4 4 6 8 10 11 13 16 18 19 20 22 23 25 27 29 32 33 35 36 37 38 38 37 37 38 39 40 40 41 41 41 41 41 42 42 43 43 44 44
7 6 6 5 4 5 6 7 9 11 14 17 18 20 21 22 23 25 27 31 33 35 36 38 39 39 39 39 39 40 40 42 42 42 42 41 41 41 42 43 43 44 44 44
5 6 5 5 5 6 8 9 11 13 15 17 19 21 22 23 24 26 29 32 34 35 37 38 39 40 40 40 40 41 42 43 43 42 41 41 41 42 43 42 43 43 42 42
4 4 5 5 6 8 9 11 13 14 16 18 20 22 23 23 25 27 30 32 34 35 37 38 40 40 40 41 41 42 43 43 43 42 41 41 42 42 42 42 42 41 41 40
4 4 4 5 7 9 9 10 11 13 16 18 20 22 23 24 26 28 30 32 34 36 38 39 40 41 41 42 42 43 44 43 43 42 42 42 42 41 41 41 40 39 38 37
3 4 5 6 8 9 8 10 12 14 16 18 20 22 24 25 27 29 31 34 36 38 39 41 41 42 41 42 43 44 44 43 42 42 41 41 41 40 39 39 38 36 36 34
4 5 7 9 9 10 10 12 14 16 17 19 21 23 24 26 28 30 32 35 37 38 40 41 42 42 42 43 43 44 43 43 41 41 40 40 39 38 37 36 35 33 32 32
5 7 9 10 11 11 12 14 16 17 18 20 21 23 25 27 29 31 33 35 37 39 41 42 42 42 42 43 43 43 43 42 41 40 40 39 38 36 35 34 33 31 31 31
8 10 10 11 12 13 14 16 18 20 21 22 22 23 25 27 29 31 33 35 38 40 41 42 42 42 42 42 42 42 42 41 41 41 40 39 38 35 34 33 32 31 30 29
12 14 15 15 16 17 18 18 19 20 21 22 23 24 26 28 30 32 34 36 38 40 41 42 41 42 42 42 42 42 41 41 41 41 40 38 36 34 34 33 33 31 30 29
16 17 18 17 18 18 18 18 19 20 21 22 23 24 26 28 30 32 34 37 39 40 41 41 41 42 42 42 42 41 41 41 41 40 39 37 36 35 34 34 33 31 29 28
17 18 19 19 18 17 17 17 18 20 21 22 23 25 27 29 31 33 35 37 39 40 41 41 41 41 41 42 42 42 41 41 41 39 38 36 35 35 34 34 32 30 28 27
18 19 19 19 18 17 17 17 19 20 21 22 23 25 27 29 31 34 36 38 39 40 40 41 41 41 41 41 42 42 41 41 40 38 37 36 35 35 35 33 32 30 29 28
20 20 20 20 19 19 19 19 20 21 22 23 25 26 28 30 32 34 36 38 39 39 40 41 42 42 41 41 42 42 41 40 39 37 36 35 35 35 35 33 31 30 29 28
Wind_Direction
163 154 159 176 188 202 201 205 222 248 247 239 247 264 271 274 272 274 279 279 278 280 283 286 288 290 291 291 292 292 291 291 291 290 289 288 287 287 287 287 287 288 287 285
123 157 171 175 190 216 229 241 247 261 266 264 269 275 278 275 277 280 280 281 276 279 286 289 289 293 295 295 295 295 294 293 293 292 291 289 286 285 285 286 285 285 284 282
319 211 190 193 203 215 241 258 256 269 272 272 278 280 282 286 289 288 288 281 277 281 287 290 293 295 296 295 295 294 293 292 292 291 290 291 288 285 284 284 283 282 282 280
331 282 243 231 232 235 244 257 261 267 275 280 283 290 293 299 298 296 289 287 301 295 298 300 301 300 298 297 296 295 294 292 291 291 290 290 289 287 285 284 283 282 280 279
338 315 283 243 240 246 242 251 269 274 279 286 293 294 297 307 308 306 297 295 315 315 312 311 309 306 303 301 299 298 296 295 293 292 291 290 289 288 287 285 284 282 280 278
353 331 309 288 283 265 260 282 293 292 291 297 307 311 311 321 329 349 353 332 329 328 324 323 319 314 311 308 306 304 302 299 297 295 294 292 291 290 288 288 286 285 283 280
346 329 309 276 257 263 292 312 309 303 307 315 325 335 340 348 2 6 358 346 341 337 336 332 326 322 318 315 313 311 308 305 302 299 297 295 293 292 291 290 288 286 284 282
344 342 328 326 293 273 293 305 320 321 325 331 343 351 3 12 12 4 355 348 344 341 338 334 330 327 324 321 318 316 314 311 308 304 301 298 297 295 294 292 290 288 286 283
359 358 339 334 327 328 321 319 334 333 328 333 341 350 356 3 3 357 352 348 344 341 338 335 332 330 327 324 322 320 317 315 312 309 305 303 301 298 297 295 292 290 288 286
349 347 340 331 331 324 328 330 329 332 329 331 335 342 352 358 358 355 351 347 344 341 338 335 333 331 328 326 324 321 319 317 314 311 308 305 303 300 298 296 295 292 290 288
346 350 346 332 332 331 325 327 334 334 333 331 334 343 352 354 352 351 348 345 341 339 336 334 332 330 328 326 324 322 320 318 316 314 311 308 306 303 301 299 297 295 292 289
343 347 349 348 350 347 335 346 350 349 344 343 344 349 351 352 351 348 344 340 338 336 334 333 331 329 327 325 324 322 320 318 316 314 311 309 307 304 302 301 299 297 294 291
330 331 333 339 344 348 348 349 348 351 348 347 348 350 350 350 347 343 338 335 335 334 333 332 330 329 327 325 323 321 320 318 316 314 312 309 308 306 304 302 300 298 296 293
323 319 316 314 324 323 324 331 338 341 343 344 346 347 347 344 340 337 335 334 334 333 331 330 330 329 328 326 324 322 321 319 318 315 313 311 310 308 306 304 302 300 297 295
316 315 316 311 302 298 306 322 328 334 341 343 343 344 342 339 336 335 334 333 333 332 330 330 329 330 329 328 326 324 323 321 319 317 315 313 312 310 308 307 305 303 300 298
311 311 307 304 298 296 301 317 317 326 337 340 340 340 337 336 336 335 333 332 332 332 331 331 331 331 330 329 328 327 325 324 322 319 317 316 315 313 311 310 308 305 303 301
312 314 311 305 300 301 300 317 325 327 334 336 334 334 333 334 334 333 331 332 333 333 333 333 333 332 332 331 330 330 329 327 325 323 321 320 318 316 314 314 312 309 307 304
314 318 320 316 309 308 315 319 325 326 328 327 327 329 330 331 332 331 332 333 334 334 334 334 334 333 333 333 333 333 332 331 329 328 326 324 322 320 319 319 317 314 312 309
300 324 328 323 318 323 331 330 326 325 327 326 326 327 328 330 332 333 333 334 334 334 335 335 335 335 335 335 335 335 335 334 333 332 331 329 328 327 325 324 322 321 320 317
304 323 325 321 318 323 329 324 324 325 326 325 326 326 328 330 331 332 333 334 335 335 336 336 336 337 337 336 337 337 337 337 337 336 334 333 333 332 330 330 328 327 325 323
316 325 323 323 323 327 326 326 325 324 325 325 326 326 328 329 330 332 333 335 336 336 337 337 337 338 338 339 339 339 340 339 339 338 338 337 336 335 335 334 333 332 330 328
313 320 323 323 323 323 325 326 324 321 321 323 325 326 327 329 330 332 333 335 336 337 338 338 339 340 340 341 341 341 341 342 341 341 341 341 340 339 338 338 337 335 333 333
304 309 310 313 316 318 320 320 318 318 320 321 322 323 326 328 330 332 333 335 336 337 339 340 340 341 342 342 343 343 343 344 344 344 344 344 344 343 343 342 341 340 338 337
298 300 302 308 313 315 315 314 313 315 318 320 321 323 326 328 329 331 334 336 337 338 340 341 342 343 343 344 344 345 345 346 346 346 347 347 348 348 347 347 346 345 344 344
291 293 300 306 311 312 312 312 314 317 318 320 322 324 326 327 329 331 334 336 338 339 340 342 343 344 345 345 346 347 347 347 348 348 349 350 351 352 352 351 351 351 351 351
286 293 300 305 309 311 313 314 315 317 319 320 322 323 324 326 328 330 333 336 338 340 341 342 344 345 345 346 347 348 348 349 350 351 352 353 353 354 355 355 356 356 356 356
Height
5867 5868 5867 5868 5869 5870 5871 5872 5872 5872 5871 5871 5871 5870 5870 5869 5869 5869 5868 5867 5866 5865 5863 5860 5857 5855 5853 5851 5849 5846 5844 5841 5839 5836 5834 5832 5829 5827 5826 5824 5822 5820 5818 5817
5868 5867 5866 5867 5867 5867 5868 5868 5869 5869 5868 5868 5867 5867 5866 5866 5865 5864 5862 5861 5861 5860 5859 5856 5854 5851 5849 5846 5844 5841 5838 5835 5832 5829 5826 5823 5820 5818 5816 5815 5813 5811 5809 5807
5867 5867 5866 5866 5865 5866 5866 5866 5867 5867 5866 5866 5866 5865 5863 5862 5861 5859 5856 5855 5856 5855 5854 5852 5850 5848 5845 5842 5839 5835 5832 5828 5825 5821 5818 5814 5810 5808 5807 5805 5803 5801 5799 5798
5866 5866 5865 5865 5865 5864 5865 5865 5865 5866 5865 5864 5864 5862 5861 5859 5857 5854 5853 5853 5853 5851 5850 5848 5846 5843 5840 5837 5833 5829 5825 5821 5817 5813 5809 5806 5802 5799 5797 5794 5792 5790 5789 5787
5865 5864 5864 5864 5863 5863 5863 5863 5863 5864 5864 5863 5862 5860 5859 5856 5853 5850 5850 5851 5850 5848 5846 5844 5841 5838 5835 5831 5826 5822 5817 5813 5809 5804 5800 5796 5793 5789 5786 5783 5781 5779 5777 5775
5865 5864 5863 5863 5862 5862 5861 5862 5862 5862 5862 5861 5859 5857 5855 5853 5851 5848 5848 5848 5847 5844 5841 5838 5835 5832 5828 5823 5819 5814 5809 5805 5800 5796 5791 5787 5783 5779 5776 5772 5769 5767 5765 5763
5864 5863 5862 5861 5860 5861 5860 5861 5860 5860 5859 5858 5856 5854 5853 5850 5849 5847 5846 5844 5842 5839 5836 5832 5829 5824 5820 5815 5810 5806 5801 5796 5791 5786 5782 5777 5773 5770 5766 5762 5759 5756 5754 5751
5863 5863 5861 5860 5860 5859 5859 5859 5859 5858 5856 5854 5853 5851 5851 5848 5847 5845 5842 5839 5837 5834 5830 5826 5822 5817 5812 5807 5801 5797 5792 5787 5782 5777 5773 5768 5764 5760 5756 5752 5749 5745 5742 5740
5863 5863 5861 5860 5860 5859 5859 5857 5856 5856 5854 5852 5851 5849 5848 5846 5844 5841 5838 5835 5832 5829 5825 5820 5815 5810 5804 5799 5793 5788 5783 5778 5773 5768 5763 5759 5754 5749 5745 5741 5737 5734 5730 5727
5862 5862 5861 5859 5859 5858 5858 5856 5855 5854 5852 5850 5848 5847 5846 5843 5840 5837 5834 5830 5827 5823 5819 5814 5808 5803 5797 5792 5786 5780 5775 5769 5764 5759 5754 5749 5744 5739 5734 5730 5726 5721 5718 5714
5861 5861 5860 5859 5858 5857 5856 5856 5853 5852 5850 5848 5846 5847 5843 5840 5837 5833 5830 5826 5822 5818 5814 5809 5803 5797 5791 5785 5779 5773 5767 5761 5755 5749 5744 5738 5733 5727 5722 5717 5713 5708 5704 5700
5860 5859 5858 5857 5856 5855 5854 5853 5852 5851 5849 5847 5845 5846 5840 5837 5833 5830 5827 5823 5819 5814 5809 5803 5797 5791 5784 5778 5772 5766 5760 5753 5747 5741 5734 5728 5722 5716 5711 5705 5700 5695 5690 5686
5859 5858 5857 5856 5857 5854 5852 5851 5850 5849 5847 5845 5843 5843 5837 5834 5830 5827 5824 5820 5815 5810 5804 5798 5792 5785 5778 5772 5765 5759 5752 5745 5738 5731 5724 5718 5711 5705 5699 5693 5687 5681 5676 5671
5858 5857 5857 5856 5854 5852 5851 5850 5848 5847 5845 5843 5841 5838 5835 5832 5829 5826 5821 5816 5811 5805 5799 5793 5786 5779 5772 5765 5758 5751 5744 5736 5729 5721 5714 5707 5700 5693 5687 5680 5673 5667 5661 5656
5856 5855 5854 5853 5852 5851 5849 5848 5846 5845 5843 5841 5838 5835 5832 5830 5826 5822 5817 5812 5807 5801 5795 5788 5781 5773 5766 5758 5750 5743 5735 5727 5719 5711 5703 5696 5689 5681 5674 5667 5660 5653 5647 5641
5854 5853 5852 5852 5851 5849 5848 5847 5845 5843 5841 5839 5836 5833 5830 5827 5823 5819 5814 5809 5804 5797 5790 5783 5775 5767 5759 5751 5743 5735 5726 5717 5709 5701 5693 5685 5677 5670 5662 5655 5647 5640 5633 5626
5852 5851 5851 5850 5849 5848 5847 5846 5843 5842 5839 5837 5834 5832 5827 5824 5820 5816 5811 5805 5799 5792 5784 5777 5769 5761 5752 5744 5736 5727 5718 5708 5699 5691 5682 5674 5666 5658 5650 5643 5635 5627 5620 5614
5850 5849 5848 5848 5847 5846 5847 5843 5841 5839 5837 5835 5831 5828 5824 5820 5817 5812 5806 5800 5794 5787 5779 5771 5763 5754 5746 5737 5728 5719 5710 5700 5691 5682 5673 5664 5656 5648 5640 5632 5624 5616 5609 5602
5848 5847 5846 5845 5844 5843 5842 5840 5838 5836 5833 5831 5827 5824 5820 5816 5812 5807 5802 5795 5788 5781 5773 5765 5756 5748 5739 5730 5721 5712 5703 5693 5683 5674 5665 5656 5647 5639 5631 5622 5614 5607 5600 5593
5845 5844 5844 5843 5841 5841 5841 5838 5835 5833 5830 5827 5824 5820 5816 5812 5808 5804 5797 5790 5783 5775 5767 5759 5750 5742 5733 5724 5715 5706 5696 5687 5677 5668 5659 5649 5640 5632 5623 5615 5607 5600 5593 5586
5842 5841 5841 5840 5838 5837 5836 5833 5831 5829 5827 5823 5820 5816 5812 5808 5804 5799 5792 5785 5778 5770 5762 5753 5745 5736 5727 5718 5709 5700 5691 5681 5672 5662 5652 5643 5634 5625 5617 5609 5601 5594 5586 5579
5838 5838 5837 5836 5835 5835 5832 5830 5828 5825 5822 5818 5815 5812 5808 5804 5799 5793 5787 5781 5773 5765 5757 5748 5740 5731 5722 5713 5704 5695 5685 5676 5666 5656 5647 5637 5628 5620 5612 5604 5596 5588 5580 5573
5835 5835 5834 5833 5833 5831 5828 5826 5824 5821 5818 5815 5811 5808 5804 5799 5794 5789 5783 5776 5768 5760 5752 5743 5734 5726 5717 5708 5699 5690 5680 5671 5661 5651 5642 5633 5624 5615 5607 5599 5591 5583 5575 5568
5832 5831 5830 5828 5827 5826 5824 5822 5819 5817 5814 5810 5807 5803 5799 5795 5790 5784 5778 5771 5763 5755 5747 5739 5730 5721 5712 5703 5694 5685 5676 5666 5657 5647 5638 5629 5620 5612 5603 5595 5587 5579 5572 5564
5828 5826 5825 5824 5823 5821 5819 5817 5815 5812 5809 5806 5803 5799 5794 5790 5785 5779 5773 5766 5758 5750 5742 5734 5725 5717 5708 5699 5690 5681 5672 5662 5653 5644 5635 5626 5618 5610 5601 5593 5585 5577 5569 5562
5823 5822 5821 5819 5818 5816 5814 5812 5809 5807 5804 5801 5798 5794 5790 5785 5780 5774 5767 5761 5753 5746 5738 5729 5721 5712 5704 5695 5687 5678 5668 5660 5651 5642 5633 5625 5616 5608 5600 5591 5583 5575 5568 5561